Location: Asheville, NC
(35.6000°N, 82.5500°W)
Time: 03:24:56
(UTC-04:00)

RS-15 - Pass Details

Date: 14 March 2018
Orbit: 1890 x 2154 km, 64.8° (Epoch: 19 June)

Event Time Altitude Azimuth Distance (km) Brightness Sun altitude
Exits shadow 02:02:11 38° 356° (N) 2,926 9.0 -56.5°
Drops below altitude 10° 02:09:30 10° 23° (NNE) 4,574 10.3 -56.2°
Sets 02:13:05 0° 29° (NNE) 5,546 10.9 -56.0°
